Regional Weather Roundup
Issued by NWS

Home | Current Version | Previous Version | Text Only | Print | Product List | Glossary Off
Versions: 1 2 3 4 5 6 7 8 9 10 11 12 13 14 15 16 17 18 19 20 21 22 23 24 25 26 27 28 29 30 31 32 33 34 35 36 37 38 39 40 41 42 43 44 45 46 47 48 49 50

000
ASUS43 KLSX 301659
RWRMO

WEATHER SUMMARY FOR MISSOURI
NATIONAL WEATHER SERVICE SPRINGFIELD MO
1200 PM CDT THU JUL 30 2015

NOTE: "FAIR" INDICATES FEW OR NO CLOUDS BELOW 12,000 FEET WITH NO
       SIGNIFICANT WEATHER AND/OR OBSTRUCTIONS TO VISIBILITY.
       CURRENT SKY AND/OR WEATHER CONDITIONS ARE NOT AVAILABLE FOR
       CHILLICOTHE AND FARMINGTON.

MOZ001>031-035>038-043-044-053-054-301800-
...NORTHERN AND WESTERN MISSOURI...

CITY           SKY/WX    TMP DP  RH WIND       PRES   REMARKS
KANSAS CTY INT PTSUNNY   81  63  54 W5        30.23S
KANSAS C DTWN  PTSUNNY   84  67  56 CALM      30.21F
LEE`S SUMMIT   CLOUDY    84  58  40 S6        30.23S
ST JOSEPH      SUNNY     82  65  56 VRB3      30.22S
CHILLICOTHE      N/A     85  62  46 W7        30.22S
KIRKSVILLE     SUNNY     84  59  42 W8        30.22R

$$
MOZ066>068-077>081-088>096-101>105-301800-
...SOUTHWEST MISSOURI...

CITY           SKY/WX    TMP DP  RH WIND       PRES   REMARKS
SPRINGFIELD    MOSUNNY   84  54  35 E9        30.22S
JOPLIN         MOSUNNY   86  64  47 E6        30.21S

$$
MOZ032>034-039>042-045>050-055>058-069>072-301800-
...CENTRAL MISSOURI...

CITY           SKY/WX    TMP DP  RH WIND       PRES   REMARKS
COLUMBIA       MOSUNNY   84  57  39 SE3       30.21S
JEFFERSON CITY SUNNY     85  52  32 SE3       30.19S
ROLLA          SUNNY     83  57  41 VRB3      30.21S
SEDALIA        MOSUNNY   86  54  33 S5        30.23R
OSAGE BEACH    SUNNY     84  57  39 E6        30.22S

$$
MOZ051-052-059>065-301800-
...EAST CENTRAL MISSOURI...

CITY           SKY/WX    TMP DP  RH WIND       PRES   REMARKS
ST LOUIS INTL  MOSUNNY   89  59  36 NW8       30.19R
SPIRIT OF STL  MOSUNNY   86  61  42 NW6       30.17S
ST CHARLES     SUNNY     86  63  45 N7        30.17R

$$
MOZ072>076-082>087-097>100-106>115-301800-
...SOUTH CENTRAL AND SOUTHEAST MISSOURI...

CITY           SKY/WX    TMP DP  RH WIND       PRES   REMARKS
CAPE GIRARDEAU NOT AVBL
FARMINGTON     SUNNY     82  57  42 NE5       30.24S
POPLAR BLUFF   SUNNY     85  63  47 NE9       30.16S
WEST PLAINS    SUNNY     82  57  42 NE8       30.24R

$$



USA.gov is the U.S. government's official web portal to all federal, state and local government web resources and services.